COSMOS 2379

Satellite information

Favourite Embed

Satellite Type and Status

PAYLOADIN ORBIT

Key statistics

Satellite COSMOS 2379 at a glance.

Uptime

8838

Days in orbit

Revolutions

≈ 1.0

Per day

Orbit

OTHER

Other

Inclination

13.1

Latest

Satellite identification and parameters

Extended collection of information and parameters for COSMOS 2379.

Object identification

Identified? True

Debris? False

Object name: COSMOS 2379

International designator: 2001-037A

Object number (NORAD): 26892

Object ID (CCSDS): 26892

Country: COMMONWEALTH OF INDEPENDENT STATES (CIS)

Current information (Y/N): Y

RCS size: LARGE

Orbital parameters

Period: 1434.556 minutes

Inclination: 13.0681 deg

SMA: 42134.57 km

Apoapsis: 35789.312 km

Periapsis: 35723.559 km

RAAN: 15.9089 deg

Eccentricy: 0.00078028

Argument of periapsis: 223.1901 deg

Mean anomaly: 143.8448 deg

Mean motion: 1.00379473 rev/day

Mean motion (dot): -0.00000244 rev/day2

B* drag term: 0.0 1/REarth

Two-line elements (TLE)

Creation date: Nov. 2, 2025, 5:34 p.m.

Reference frame: TEME

Reference center: EARTH

Epoch: Nov. 1, 2025, 4:51 p.m. UTC

TLE line 0: 0 COSMOS 2379

TLE line 1: 1 26892U 01037A 25305.70253087 -.00000244 00000-0 00000-0 0 9996

TLE line 2: 2 26892 13.0681 15.9089 0007803 223.1901 143.8448 1.00379473 88581

Live tracking on map

Real-time ground track for satellite COSMOS 2379.

In-orbit conjunctions

A list of the most updated potential collisions computed for object COSMOS 2379.

Target Orbit TCA Probability of collision Miss distance Type
FENGYUN 2D DEB OTHER 2025-10-10 02:36:31 TBA 2815.0 (m) DEBRIS

Associated space launch

Second generation early warning satellite

COSMOS 2379 was lifted into orbit during the mission ‘Proton | US-KMO 5’, on board a Proton space rocket.

The launch took place on Aug. 24, 2001, 8:34 p.m. from 81/24 (81P).

For more information about the launch, click the button.

Launch to space Proton | US-KMO 5
Proton | US-KMO 5

Agency: N/A

Status: Launch Successful

Launch date: Aug. 24, 2001, 8:34 p.m. UTC

Rocket: Proton

Launch pad: 81/24 (81P)

Location: Baikonur Cosmodrome, Republic of Kazakhstan

...

Latest news about this satellite

There are no fresh news available about this satellite. Check back as we update our databases every day.


Newsletter sign-up

Weekly statistics, charts and insights to help you stay on top of the space industry.